Location: Gad�tanya
(48.0500°N, 20.8500°E)
Time: 22:17:08
(UTC+00:00)

CZ-4 R/B - Pass Details

Date: 05 July 2020
Orbit: 682 x 752 km, 98.5° (Epoch: 05 August)

Event Time Altitude Azimuth Distance (km) Brightness Sun altitude
Rises 22:36:16 0° 19° (NNE) 3,063 8.4 -19.3°
Reaches altitude 10° 22:38:36 10° 26° (NNE) 2,147 7.3 -19.3°
Maximum altitude 22:43:06 45° 99° (E) 945 4.4 -19.3°
Enters shadow 22:44:35 34° 145° (SE) 1,139 4.5 -19.3°
